Lid_Strength_Index
3 3 3 3 3 4 3 3 4 3 3 3 4 4 4 3 3 4 5 6 4 1 1 2 3 5 6 8 6 5 10 11 10 9 8 5 6 4 3 4 4 3 3 3 2
3 3 3 3 3 3 3 3 3 4 4 4 4 4 4 4 4 4 4 3 2 1 4 5 6 6 7 7 7 8 10 10 7 7 7 6 5 5 5 5 5 4 3 2 2
3 3 3 3 3 3 3 4 3 3 3 3 4 4 4 4 5 6 3 2 3 2 4 4 5 6 8 7 7 8 10 8 7 6 6 6 7 5 6 6 5 5 4 3 2
3 3 3 3 3 3 3 3 3 3 3 3 3 4 4 4 9 4 1 2 1 2 3 5 5 6 7 7 5 8 7 7 6 6 6 7 6 7 6 5 3 3 3 3 3
3 3 3 3 3 3 3 3 3 3 3 4 4 4 4 5 6 2 1 1 2 3 4 5 5 4 6 5 5 6 6 5 5 5 6 6 7 7 6 4 3 3 3 3 3
3 3 3 3 3 3 3 3 3 4 3 3 3 4 4 7 4 2 2 3 3 3 3 2 3 3 5 5 6 5 5 5 5 5 5 6 6 7 6 4 4 4 4 3 3
3 3 3 3 3 3 3 3 3 3 3 3 3 4 5 5 3 3 3 3 2 2 2 2 2 4 4 6 4 5 7 6 6 5 6 5 7 7 5 5 5 5 4 4 3
3 3 3 3 3 3 3 3 3 3 3 3 3 3 6 2 2 3 2 2 0 0 1 1 1 3 4 4 5 7 7 9 6 6 5 6 9 6 5 5 7 6 5 4 3
3 3 3 4 3 3 4 4 3 2 2 2 3 3 6 2 3 2 2 3 1 1 1 1 2 4 5 7 9 8 11 9 8 6 6 7 8 6 4 4 5 5 5 5 4
3 4 4 4 4 4 4 4 2 2 2 1 2 5 4 5 3 2 1 1 2 2 3 4 5 7 7 8 13 11 10 9 9 7 7 8 8 6 5 5 5 5 4 5 4
3 4 4 4 4 4 4 3 6 5 3 7 6 5 5 3 2 3 1 2 2 4 7 5 8 11 9 7 7 8 9 10 8 6 8 8 8 7 5 5 5 5 5 4 4
4 4 4 4 4 4 4 5 6 5 8 4 4 5 3 3 5 3 1 4 5 8 6 7 10 7 6 7 8 9 10 10 8 7 7 8 9 7 6 6 5 5 5 4 4
5 5 5 4 4 5 4 4 3 3 7 5 5 5 4 3 5 4 3 4 6 7 7 9 8 6 7 8 9 9 10 10 10 8 7 8 10 8 6 5 5 4 4 4 4
5 5 5 5 6 3 5 3 2 2 9 8 7 5 4 3 5 2 2 4 6 8 7 8 6 7 8 9 8 11 7 8 10 10 13 9 16 10 8 7 6 5 5 4 4
5 5 5 5 3 4 4 2 1 2 16 7 6 3 3 5 4 4 2 4 7 7 7 9 8 8 9 9 7 10 7 9 10 11 12 12 14 11 8 9 8 6 5 4 4
5 5 5 3 2 3 3 1 2 11 14 9 6 6 6 5 5 4 4 3 4 7 7 8 5 7 8 7 7 7 8 9 10 12 18 13 13 13 10 9 7 6 5 4 4
5 5 5 3 5 3 3 3 10 13 7 9 9 7 7 7 6 6 7 8 10 14 13 9 9 6 6 9 8 10 12 19 20 20 19 11 13 12 8 7 6 6 5 4 4
6 6 3 2 3 3 3 6 13 9 9 7 8 7 8 7 7 7 8 10 8 9 13 14 15 9 7 9 12 13 14 17 22 22 18 11 17 13 7 6 5 5 5 4 4
6 0 1 2 2 2 4 10 11 10 9 9 8 9 9 7 8 8 9 10 9 9 15 15 14 8 8 7 8 12 16 12 17 15 18 14 11 9 7 7 6 6 5 5 4
4 2 2 2 1 2 6 10 9 8 8 8 10 9 11 9 10 10 10 8 9 8 8 12 17 10 9 8 7 9 9 17 16 20 20 15 14 12 9 8 8 7 6 5 4
3 4 2 0 1 4 8 8 8 7 7 8 9 9 9 10 9 11 11 8 8 9 8 10 14 13 10 11 11 12 14 14 13 15 19 19 14 8 9 8 8 7 6 5 4
3 6 1 1 5 5 8 8 8 8 6 7 7 7 9 8 11 11 12 9 7 8 12 10 13 16 13 8 7 9 12 12 18 16 14 15 17 7 7 6 6 6 5 4 4
4 4 0 1 8 8 6 7 7 8 8 8 8 7 6 9 12 11 9 6 6 8 12 11 14 17 14 11 10 12 11 12 13 14 17 19 16 7 6 6 6 6 5 5 4
4 7 4 3 4 6 7 8 8 7 7 7 7 6 7 8 7 10 9 8 7 8 7 9 13 15 18 14 11 14 13 12 12 17 16 15 13 9 8 7 6 5 5 5 4
3 6 4 8 7 6 6 7 8 9 7 7 8 7 8 11 10 10 8 8 7 8 8 10 15 13 12 12 12 12 12 12 13 14 17 14 12 10 8 8 6 5 5 5 7
5 6 4 6 5 7 7 7 8 8 9 9 9 7 7 9 9 11 9 9 11 9 10 9 14 12 14 11 12 15 13 12 12 13 13 13 14 9 8 7 7 6 6 6 7
2 2 4 7 7 8 8 7 8 7 8 7 7 7 8 7 6 6 6 7 8 10 11 12 13 15 17 11 12 17 15 14 14 13 14 16 11 9 9 8 8 6 6 6 7